GW0821 Weather Reports


time (UTC)temp
F
wind
direction
speed
knots
gust
knots
rain 1hr
in
rain 24hr
in
rain mn
in
humidity
%
barometer
mb
20260901180051 76 141 1.7 4.3 0.00 0.00 0.00 71 1018.2
20260901174556 77 169 1.7 6.1 0.00 0.00 0.00 71 1018.4
20260901173112 77 130 0.9 6.1 0.00 0.00 0.00 70 1018.4
20260901171600 78 211 1.7 6.1 0.00 0.00 0.00 70 1018.3
20260901170057 78 155 4.3 7.0 0.00 0.00 0.00 70 1018.6
20260901164559 79 145 1.7 7.8 0.00 0.00 0.00 69 1019.0
20260901163111 80 141 4.3 8.7 0.00 0.00 0.00 69 1018.9
20260901161602 79 173 2.6 7.0 0.00 0.00 0.00 69 1018.7
20260901160056 81 136 3.5 10.4 0.00 0.00 0.00 66 1018.7
20260901154549 81 203 3.5 9.6 0.00 0.00 0.00 65 1018.7
20260901153048 80 149 3.5 11.3 0.00 0.00 0.00 66 1018.9
20260901151559 80 158 3.5 9.6 0.00 0.00 0.00 65 1018.9
20260901150050 82 154 4.3 9.6 0.00 0.00 0.00 63 1018.8
20260901144548 82 154 4.3 9.6 0.00 0.00 0.00 63 1018.9
20260901143050 83 219 2.6 7.0 0.00 0.00 0.00 62 1018.8
20260901141554 82 203 2.6 7.0 0.00 0.00 0.00 65 1018.8
20260901140057 80 193 2.6 8.7 0.00 0.00 0.00 67 1018.9
20260901134552 81 141 3.5 7.8 0.00 0.00 0.00 65 1019.2
20260901133106 81 277 2.6 10.4 0.00 0.00 0.00 66 1019.7
20260901131558 81 180 4.3 10.4 0.00 0.00 0.00 64 1019.6
20260901130057 82 170 3.5 8.7 0.00 0.00 0.00 63 1019.8
20260901124550 82 153 3.5 10.4 0.00 0.00 0.00 62 1019.9
20260901123049 81 153 5.2 11.3 0.00 0.00 0.00 61 1020.0
20260901121553 83 222 5.2 10.4 0.00 0.00 0.00 58 1020.1
20260901120106 82 207 4.3 7.0 0.00 0.00 0.00 58 1020.1
20260901114552 82 160 3.5 7.8 0.00 0.00 0.00 58 1020.1
20260901113051 82 148 2.6 13.0 0.00 0.00 0.00 58 1020.1
20260901111604 82 150 3.5 8.7 0.00 0.00 0.00 57 1020.2
20260901110058 81 274 4.3 11.3 0.00 0.00 0.00 59 1020.3
20260901104554 81 144 3.5 11.3 0.00 0.00 0.00 61 1020.4
20260901103056 81 155 7.0 11.3 0.00 0.00 0.00 61 1020.3
20260901101556 81 198 3.5 12.2 0.00 0.00 0.00 61 1020.2
20260901094549 81 203 4.3 7.8 0.00 0.00 0.00 62 1020.0
20260901093057 81 110 0.0 2.6 0.00 0.00 0.00 61 1019.7
20260901091552 79 278 2.6 4.3 0.00 0.00 0.00 65 1019.8
20260901090049 79 67 0.0 2.6 0.00 0.00 0.00 67 1019.6
20260901084559 78 281 2.6 6.1 0.00 0.00 0.00 68 1019.6
20260901083056 77 294 3.5 5.2 0.00 0.00 0.00 70 1019.6
20260901081552 77 302 0.9 2.6 0.00 0.00 0.00 71 1019.7
20260901080106 75 293 1.7 2.6 0.00 0.00 0.00 74 1019.7
20260901074553 74 0 0.0 0.9 0.00 0.00 0.00 79 1019.7
20260901073055 74 0 0.0 0.0 0.00 0.00 0.00 77 1019.9
20260901071550 72 0 0.0 0.0 0.00 0.00 0.00 81 1020.1
20260901070055 70 0 0.0 0.0 0.00 0.00 0.00 83 1019.9
20260901064551 69 0 0.0 0.0 0.00 0.00 0.00 88 1019.9
20260901063056 67 0 0.0 0.0 0.00 0.00 0.00 91 1019.9
20260901061549 65 0 0.0 0.0 0.00 0.00 0.00 91 1019.9
20260901060058 65 0 0.0 0.0 0.00 0.00 0.00 91 1020.0
20260901054552 65 0 0.0 0.0 0.00 0.00 0.00 91 1020.0
20260901053058 65 0 0.0 0.0 0.00 0.00 0.00 91 1019.9
20260901051606 65 0 0.0 0.0 0.00 0.00 0.00 90 1019.7
20260901050052 65 0 0.0 0.0 0.00 0.00 0.00 90 1019.7
20260901044553 65 0 0.0 0.0 0.00 0.00 0.00 90 1019.7
20260901043049 65 0 0.0 0.0 0.00 0.00 0.00 90 1019.8
20260901041613 66 0 0.0 0.0 0.00 0.00 0.00 90 1019.8
20260901040133 66 0 0.0 0.0 0.00 0.00 0.00 89 1019.9
20260901034552 66 0 0.0 0.0 0.00 0.00 0.00 88 1019.9
20260901033049 67 0 0.0 0.0 0.00 0.00 0.00 87 1020.0
20260901031558 67 0 0.0 0.0 0.00 0.00 0.00 86 1019.9
20260901030052 68 0 0.0 0.0 0.00 0.00 0.00 86 1020.2
20260901024554 68 0 0.0 0.0 0.00 0.00 0.00 86 1020.2
20260901023055 68 0 0.0 0.0 0.00 0.00 0.00 86 1020.3
20260901021552 68 0 0.0 0.0 0.00 0.00 0.00 86 1020.7
20260901020055 68 0 0.0 0.0 0.00 0.00 0.00 86 1020.7
20260901014549 67 0 0.0 0.0 0.00 0.00 0.00 87 1020.8
20260901013101 67 0 0.0 0.0 0.00 0.00 0.00 87 1020.7
20260901011551 67 0 0.0 0.0 0.00 0.00 0.00 87 1020.7
20260901010114 67 0 0.0 0.0 0.00 0.00 0.00 86 1020.9
20260901004556 67 0 0.0 0.0 0.00 0.00 0.00 87 1020.9
20260901003049 67 0 0.0 0.0 0.00 0.00 0.00 87 1020.7
20260901001546 67 0 0.0 0.0 0.00 0.00 0.00 88 1020.9
20260901000055 67 0 0.0 0.0 0.00 0.00 0.00 87 1020.9
20260831234602 67 0 0.0 0.0 0.00 0.00 0.00 86 1020.9
20260831233049 68 0 0.0 0.0 0.00 0.00 0.00 86 1020.9
20260831231558 68 0 0.0 1.7 0.00 0.00 0.00 86 1020.8
20260831230111 68 0 0.0 0.0 0.00 0.00 0.00 86 1020.8
20260831224553 68 0 0.0 0.0 0.00 0.00 0.00 86 1020.8
20260831223107 69 0 0.0 0.0 0.00 0.00 0.00 84 1021.0
20260831221556 69 0 0.0 0.9 0.00 0.00 0.00 84 1020.7
20260831220050 70 0 0.0 0.0 0.00 0.00 0.00 85 1020.7
20260831214608 70 0 0.0 0.9 0.00 0.00 0.00 84 1020.7
20260831213051 71 0 0.0 0.9 0.00 0.00 0.00 83 1020.6
20260831211552 71 0 0.0 0.9 0.00 0.00 0.00 85 1020.5
20260831210047 72 154 0.0 1.7 0.00 0.00 0.00 84 1020.5
20260831204554 72 151 0.0 2.6 0.00 0.00 0.00 84 1020.4
20260831203055 73 0 0.0 1.7 0.00 0.00 0.00 83 1020.3
20260831201551 73 158 0.9 3.5 0.00 0.00 0.00 81 1020.2
20260831200104 73 153 0.0 2.6 0.00 0.00 0.00 77 1019.9
20260831194624 74 137 1.7 3.5 0.00 0.00 0.00 75 1019.7
20260831193050 74 148 1.7 2.6 0.00 0.00 0.00 73 1019.5
20260831191556 75 158 0.9 3.5 0.00 0.00 0.00 72 1019.2
20260831184550 76 250 0.9 5.2 0.00 0.00 0.00 69 1018.9
20260831183054 76 196 2.6 6.1 0.00 0.00 0.00 69 1018.9
20260831181557 76 174 1.7 6.1 0.00 0.00 0.00 68 1018.7